Погода Благодарный

Погода Благодарный : погода сейчас, прогноз погоды и архив. Всё, что Вы хотите узнать о погоде Благодарный!

Поиск расширенной информации на нашем сайте:

Другие новости

Новости СМИ2

Главная страница сайта

Новости сайта

03.07.2017

Напоминаем, что на нашем специализированном сайте Метеоцентр.Азия вы можете получить высокодетализированные автоматические прогнозы погоды по пунктам России, СНГ и мира в авиационном формате (включающие направление и скорость ветра, видимость, явления погоды, количество и форму облачности, нижнюю и верхнюю границу облачности).


Погода Благодарный - сегодня

Время (UTC), дата Ветер
(°,м/с) 
Видим.   Явления Облачность Т
(°С)
Тd
(°С)
f(%) Тe
(°С)
Pmin
(гПа)
dP
(гПа)
Po
(мм)
O2
(г/м3)
Тmin Tmax R s Состояние
почвы
21 18.05.18 260 (З) 20000 м    10/0 средняя 
[Ac As]
+19.2 +10.5 57 +23  1014.8  -0.5  747  279           
00 19.05.18 250 (З) 20000 м    ясно 
+17 +10.3 65 +20  1015.7  0.7  747  282           
03 19.05.18 тихо ()   20000 м    8/8 600 м 
[Sc]
+17.8 +12 69 +22  1015.6  747  280  +16.1        сухая 
06 19.05.18 030 (СВ) 20000 м    9/0 средняя, верхняя 
[Ac trans|Ci fib]
+24.1 +11.1 44 +27  1015.6  0.4  748  275           
09 19.05.18 260 (З) 20000 м    6/0 верхняя 
[Ci fib]
+27.9 +9.9 32 +29  1014.8  -0.6  747  271           
12 19.05.18 070 (В) 20000 м    9/8 600 м средняя 
[Sc|Ac trans]
+29.1 +10 30 +30  1013.9  -0.8  747  270           
15 19.05.18 180 (Ю) 20000 м    9/9 600 м 
[Sc]
+28.5 +10.2 32 +30  1013.6  -0.3  746  271    +29.5       
18 19.05.18 тихо ()   20000 м    10/10 600 м 
[Sc]
+22.9 +13.3 55 +29  1014.4  0.5  747  275           
21 19.05.18 тихо ()   20000 м    ясно 
+18 +13.4 74 +24  1014.3  -0.5  746  280           
00 20.05.18 260 (З) 20000 м    ясно 
+16.1 +12.9 81 +22  1014.3  0.1  746  281           
03 20.05.18 250 (З) 20000 м    10/10 600 м 
[Sc]
+17.4 +13.5 78 +25  1014.6  0.4  747  280  +16.1        сухая 
06 20.05.18 040 (СВ) 20000 м    9/9 600 м 
[Sc]
+23.3 +11.5 47 +27  1014.2  0.1  747  275           
09 20.05.18 060 (СВ) 20000 м    3/0 средняя 
[Ac trans]
+27.1 +11.7 38 +31  1013.8  -0.2  747  272           
12 20.05.18 100 (В) 4{11}  20000 м    3/0 верхняя 
[Ci fib]
+29.5 +9.8 29 +31  1012.7  -1  746  270           
15 20.05.18 050 (СВ) 20000 м    10/10 600 м 
[Sc]
+25.5 +10.2 38 +27  1012.4  -0.5  745  273    +29.6       
18 20.05.18 тихо ()   20000 м    3/3 600 м 
[Sc]
+17.2 +11.5 69 +21  1013.3  0.4  746  281           
21 20.05.18 280 (З) 20000 м    ясно 
+16.5 +12.1 75 +22  1013.2  -0.1  746  281           
00 21.05.18 250 (З) 20000 м    ясно 
+15.5 +12.7 83 +22  1012.9  -0.4  745  282           
03 21.05.18 270 (З) 20000 м    10/3 600 м верхняя 
[Sc|Ci fib]
+15.9 +12.5 80 +22  1013.9  746  282  +14.5        сухая 
06 21.05.18 260 (З) 20000 м    8/0 средняя 
[Ac trans]
+24.2 +15.5 58 +34  1013.8  0.5  746  273           
09 21.05.18 310 (СЗ) 4{10}  20000 м    6/0 средняя, верхняя 
[Ac trans|Ci]
+27.9 +13.3 41 +34  1014.2  0.6  747  270           
12 21.05.18 300 (СЗ) 4{12}  20000 м    10/9 600 м средняя 
[Sc|Ac As]
+24.1 +12.4 48 +29  1015.9  1.4  748  275           
15 21.05.18 290 (З) 20000 м  в посл. час ливневой дождь  10/10 600 м кучево-дожд. 
[Cb cap]
+21 +14.7 67 +29  1016.6  0.5  748  277    +28.2       
18 21.05.18 260 (З) 20000 м  в посл. час ливневой дождь  10/10 600 м кучево-дожд. 
[Cb cap]
+18.8 +16.3 85 +31  1017.8  749  279           
21 21.05.18 240 (ЮЗ) 20000 м    10/10 600 м 
[Sc]
+18.1 +15.5 85 +30  1017.9  0.1  749  280           
Время (UTC), дата Ветер
(°,м/с) 
Видим.   Явления Облачность Т
(°С)
Тd
(°С)
f(%) Тe
(°С)
Pmin
(гПа)
dP
(гПа)
Po
(мм)
O2
(г/м3)
Тmin Tmax R s Состояние
почвы

Для получения пояснительной информации подведите курсор к названию столбца.

ПОГОДА Благодарный - архив

Всё, что Вы хотите узнать о погоде Благодарный - удобно и подробно!

Выберите нужную дату (начиная с 1 января 2015* года) и нажмите кнопку "Найти".
Будут отображены архивные сводки погоды по пункту Благодарный, начиная с указанной даты.


Отображать данные в формате CSV (для использования в таблицах Excel)


Внимание! Наш архив погоды предназначен исключительно для личного некоммерческого использования в познавательных целях. Если Вам необходимы официальные справки о состоянии погоды (для производственных, юридических, коммерческих и т.п. целей), обращайтесь в органы Росгидромета.

*Примечание: данная дата относится к архиву по метеостанциям СССР (Россия, СНГ, Балтия).
Архив по метеостанциям Зарубежной Европы и Азии (кроме Китая) хранится 10 дней, по другим регионам земного шара (Китай, Африка, Америка, Австралия, Океания) - 1 день.

Благодарный - район местоположения метеостанции


Название, широта, долгота, высота метеостанции:
Благодарный 45.1°ш. 43.4°д. 162 м над ур. моря [Российская Федерация]

Дополнительная информация

В oтличие oт бoльшинства пoгoдных сайтoв мы публикуем пoдрoбную метеoинфoрмацию в детальнoм прoфессиoнальнoм фoрмате.

Характеристики температуры и влажнoсти вoздуха измеряются на высoте 2 м в тени вдали oт зданий и деревьев.
Скoрoсть ветра измеряется на высoте 10 м (на урoвне рoста челoвека скoрoсть ветра ниже в 1.5-2 раза). Если метеoстанция нахoдится в гoрoде или в лесу, тo скoрoсть ветра занижена на 2-4 м/с пo сравнению с oткрытым местoм. Скoрoсть ветра над акватoриями крупных рек и oзёр, а также на вершинах хoлмoв на 2-5 м/с выше, чем в oбычных услoвиях.
Атмoсфернoе давление в разных тoчках местнoсти мoжет значительнo oтличаться oт давления на метеoстанции, в зависимoсти oт услoвий рельефа (при пoдъёме на 10 м давление пoнижается примернo на 1 мм рт.ст.).